Location: Larkspur
(54.4391°N, 113.7691°W)
Time: 02:58:44
(UTC+00:00)

YUBILEINY - Pass Details

Date: 07 December 2023
Orbit: 1479 x 1508 km, 82.5° (Epoch: 03 March)

Event Time Altitude Azimuth Distance (km) Brightness Sun altitude
Rises 04:18:01 0° 347° (NNW) 4,635 ? -42.7°
Reaches altitude 10° 04:20:57 10° 344° (NNW) 3,647 ? -43.1°
Enters shadow 04:27:27 50° 315° (NW) 1,840 ? -43.9°
